[[{"header":{"parameterUnit":"m.s-1","parameterCategory":1,"la1":30.2992,"la2":30.254,"lo1":-89.0895,"lo2":-89.0443,"dy":0.0025,"dx":0.0025,"nx":19,"ny":19,"refTime":"2026-05-12T09:00:00:Z","depth":0,"parameterNumber":2,"parameterNumberName":"U-component_of_WINDS"},"data":[0,0,0,0.1948,0.1949,0.1991,0.1991,0.2054,0.2055,0,0,0,0,0,0,0,0,0,0,0,0.1942,0.1943,0.1948,0.1949,0.1991,0.1991,0.2054,0.2055,0,0,0,0,0,0,0,0,0,0,0,0.1942,0.1943,0.1944,0.1949,0.1991,0.1991,0.2054,0.2019,0,0,0,0,0,0,0,0,0,0,0.1977,0.1978,0.1943,0.1944,0.195,0.1991,0.1991,0.2017,0.2021,0.204,0,0.2059,0,0.2058,0.206,0.206,0,0,0,0.1944,0.1974,0.198,0.1944,0.195,0.1991,0.1971,0.2019,0.2024,0.2045,0.2059,0.2061,0.2059,0.206,0.2061,0.2186,0.2187,0,0,0.1942,0.1953,0.1977,0.1983,0.1978,0.1969,0.1972,0.2022,0.2038,0.206,0.2063,0.206,0.2061,0.2061,0.2185,0.2186,0,0,0,0.1939,0.1952,0.1956,0.1981,0.1988,0.1971,0.1974,0.2036,0.2036,0.2063,0.2061,0.2061,0.2062,0.2184,0.2186,0.2237,0,0,0,0.1937,0.195,0.1955,0.1962,0.1987,0.2012,0.1987,0.2033,0.2038,0.206,0.2061,0.2063,0.2184,0.2185,0.2233,0.2258,0,0,0,0.1937,0.195,0.1958,0.1963,0.1981,0.2011,0.2014,0.2033,0.2036,0.206,0.2063,0.2183,0.2185,0.223,0.2253,0.2294,0,0,0,0.1941,0.2003,0.1959,0.2028,0.1981,0.2043,0.2014,0.2059,0.2086,0.2062,0.2184,0.2186,0.2229,0.225,0.229,0.2328,0.2346,0,0,0.2026,0.2014,0.2053,0.2015,0.2088,0.2036,0.2116,0.2129,0.2121,0.2165,0.2168,0.2234,0.2253,0.2293,0.2442,0.2456,0,0,0,0.2084,0.2112,0.2129,0.2155,0.2168,0.218,0.218,0.2185,0.2221,0.2146,0.226,0.2271,0.2294,0.2311,0.2323,0.2341,0.2195,0.2195,0.2194,0.2219,0.2206,0.227,0.2262,0.2288,0.2287,0.2306,0.2313,0.2292,0.2319,0.2331,0.2424,0.2445,0.2453,0.2472,0.2352,0.2352,0.2352,0.2352,0.2341,0.2378,0.235,0.2402,0.2387,0.243,0.2432,0.2416,0.2453,0.2413,0.2433,0.2388,0.2469,0.2485,0.2356,0.2356,0.2355,0.2355,0.2354,0.2427,0.2442,0.2448,0.2484,0.2513,0.2503,0.254,0.2526,0.2513,0.2532,0.2542,0.2542,0.2537,0.2538,0.2539,0.2539,0.2539,0.254,0.254,0.2512,0.2517,0.2551,0.2569,0.2584,0.2601,0.2602,0.2616,0.2627,0.2614,0.2614,0.2589,0.248,0.2452,0.2545,0.2544,0.2543,0.2543,0.2542,0.2638,0.2607,0.2659,0.2674,0.2694,0.2723,0.2705,0.2734,0.2744,0.2762,0.2734,0.2657,0.2643,0.2634,0.261,0.2738,0.2738,0.2738,0.2738,0.2708,0.2701,0.275,0.2774,0.2796,0.2786,0.2843,0.2845,0.2841,0.2846,0.2826,0.2794,0.2785,0.2776,0.2764,0.2742,0.29,0.29,0.29,0.2784,0.2778,0.2829,0.2826,0.2841,0.2854,0.2908,0.2936,0.2926,0.2907,0.2849,0.2842,0.279,0.2775,0.2752,0.2733,0.2692,0,0]},{"header":{"parameterUnit":"m.s-1","parameterCategory":1,"la1":30.2992,"la2":30.254,"lo1":-89.0895,"lo2":-89.0443,"dy":0.0025,"dx":0.0025,"nx":19,"ny":19,"refTime":"2026-05-12T09:00:00:Z","depth":0,"parameterNumber":3,"parameterNumberName":"V-component_of_WINDS"},"data":[0,0,0,0.5523,0.5522,0.5481,0.5481,0.5442,0.5442,0,0,0,0,0,0,0,0,0,0,0,0.5543,0.5543,0.5523,0.5522,0.5481,0.5481,0.5442,0.5442,0,0,0,0,0,0,0,0,0,0,0,0.5543,0.5543,0.5543,0.5522,0.5481,0.5481,0.5442,0.5468,0,0,0,0,0,0,0,0,0,0,0.5505,0.5533,0.5543,0.5543,0.5522,0.5481,0.5481,0.5469,0.5466,0.5466,0,0.5469,0,0.5455,0.544,0.544,0,0,0,0.5515,0.5535,0.5517,0.5543,0.5521,0.5481,0.5498,0.5467,0.5464,0.5463,0.5468,0.5467,0.5454,0.544,0.544,0.5461,0.5461,0,0,0.5518,0.5541,0.5519,0.5515,0.5523,0.5499,0.5497,0.5465,0.5473,0.5468,0.5465,0.5454,0.544,0.544,0.546,0.5461,0,0,0,0.5528,0.5543,0.5524,0.5517,0.5509,0.5498,0.5495,0.5474,0.5466,0.5465,0.5453,0.544,0.5439,0.546,0.5461,0.5502,0,0,0,0.5529,0.5549,0.5525,0.5539,0.551,0.5491,0.5505,0.5468,0.5464,0.5453,0.544,0.5439,0.546,0.546,0.55,0.5517,0,0,0,0.5543,0.555,0.5548,0.5541,0.5524,0.5491,0.5481,0.5467,0.5457,0.544,0.5439,0.5459,0.546,0.5498,0.5514,0.5527,0,0,0,0.5564,0.5586,0.5549,0.5568,0.5525,0.5518,0.5481,0.5475,0.5465,0.5439,0.546,0.5461,0.5497,0.5512,0.5526,0.5542,0.5551,0,0,0.5605,0.5592,0.5601,0.5567,0.5572,0.5522,0.5533,0.5502,0.548,0.5468,0.5468,0.55,0.5514,0.5527,0.56,0.5607,0,0,0,0.5622,0.5629,0.5625,0.5617,0.5594,0.5575,0.554,0.5528,0.5517,0.5479,0.5509,0.5517,0.5523,0.553,0.5536,0.554,0.5465,0.5465,0.5465,0.5712,0.5681,0.5694,0.5658,0.565,0.5613,0.5603,0.5581,0.5554,0.5561,0.5557,0.5605,0.5613,0.5618,0.5622,0.5565,0.5565,0.5565,0.5565,0.5766,0.577,0.5732,0.573,0.5697,0.5696,0.566,0.564,0.5633,0.5606,0.561,0.5582,0.5627,0.5629,0.5568,0.5567,0.5567,0.5567,0.5566,0.582,0.5816,0.5802,0.5784,0.5775,0.5738,0.5732,0.5702,0.5675,0.5679,0.567,0.5669,0.5663,0.5677,0.5678,0.5678,0.5678,0.5678,0.5678,0.588,0.5862,0.5861,0.5838,0.5827,0.5809,0.5772,0.576,0.574,0.5719,0.5718,0.5688,0.5639,0.5625,0.5681,0.568,0.568,0.568,0.5679,0.5944,0.5924,0.5923,0.5912,0.588,0.5871,0.5834,0.5813,0.5799,0.5797,0.5766,0.5734,0.5719,0.5713,0.5702,0.5774,0.5774,0.5774,0.5774,0.5987,0.5977,0.5967,0.5951,0.5933,0.5899,0.5896,0.5866,0.5832,0.5821,0.5807,0.579,0.5786,0.5773,0.5766,0.5755,0.5838,0.5838,0.5838,0.6023,0.6009,0.6012,0.5979,0.5952,0.5929,0.5924,0.5907,0.5865,0.584,0.5811,0.5808,0.5781,0.5774,0.5748,0.5738,0.5717,0,0]}]]